Station Historical Data
Daily Summary for February 13, 2018 Units:  Metric    English   Both
« Previous Day
Next Day »
Daily Weekly Monthly Yearly Custom
  High: Low: Average:
Temperature: 3.6 °C -2.3 °C 1 °C
Dew Point: -0.7 °C -6.6 °C -4.1 °C
Humidity: 82 % 57 % 69 %
Wind Speed: 14.5 km/h 0 km/h 0.8 km/h
Wind Gust: 16.1 km/h - -
Wind:- - ESE
Pressure: 1044.9 hPa 1036.1 hPa -
Precipitation: 0 mm    
Historical Graphs
 
 
Tabular Data for February 13, 2018
Time Temperature Dew Point Pressure Wind Wind Speed Wind Gust Humidity Rainfall Rate (Hourly)
00:03 -0.8 °C -4.3 °C 1040.5 hPa Calm     77 % 0 mm
00:08 -0.9 °C -4.3 °C 1040.5 hPa Calm     78 % 0 mm
00:13 -1.1 °C -4.4 °C 1040.5 hPa Calm     78 % 0 mm
00:18 -1.2 °C -4.3 °C 1040.5 hPa Calm     79 % 0 mm
00:23 -1.3 °C -4.3 °C 1040.5 hPa Calm     80 % 0 mm
00:28 -1.3 °C -4.3 °C 1040.5 hPa Calm     80 % 0 mm
00:33 -1.4 °C -4.4 °C 1040.5 hPa Calm     80 % 0 mm
00:38 -1.6 °C -4.6 °C 1040.5 hPa Calm     80 % 0 mm
00:43 -1.6 °C -4.4 °C 1040.5 hPa Calm     81 % 0 mm
00:48 -1.7 °C -4.5 °C 1040.9 hPa Calm     81 % 0 mm
00:53 -1.7 °C -4.6 °C 1040.9 hPa Calm     81 % 0 mm
00:58 -1.8 °C -4.6 °C 1040.9 hPa Calm     81 % 0 mm
01:03 -1.8 °C -4.5 °C 1040.9 hPa Calm     82 % 0 mm
01:08 -1.8 °C -4.5 °C 1040.9 hPa Calm     82 % 0 mm
01:13 -1.9 °C -4.6 °C 1040.5 hPa Calm     82 % 0 mm
01:18 -1.9 °C -4.8 °C 1040.5 hPa Calm   1.6 km/h 81 % 0 mm
01:23 -1.9 °C -4.8 °C 1040.9 hPa Calm   1.6 km/h 81 % 0 mm
01:28 -1.9 °C -4.8 °C 1040.9 hPa Calm   1.6 km/h 81 % 0 mm
01:33 -1.9 °C -4.8 °C 1040.9 hPa Calm   1.6 km/h 81 % 0 mm
01:38 -1.9 °C -4.8 °C 1040.9 hPa Calm     81 % 0 mm
01:43 -1.8 °C -4.7 °C 1040.9 hPa Calm     81 % 0 mm
01:48 -1.7 °C -4.6 °C 1040.9 hPa Calm   3.2 km/h 81 % 0 mm
01:53 -1.7 °C -4.7 °C 1040.9 hPa Calm   3.2 km/h 80 % 0 mm
01:58 -1.7 °C -4.7 °C 1040.9 hPa WNW 1.6 km/h 3.2 km/h 80 % 0 mm
02:03 -1.7 °C -4.8 °C 1040.9 hPa Calm   3.2 km/h 79 % 0 mm
02:08 -1.6 °C -4.9 °C 1041.2 hPa Calm   3.2 km/h 78 % 0 mm
02:13 -1.4 °C -4.9 °C 1040.9 hPa Calm   3.2 km/h 77 % 0 mm
02:18 -1.3 °C -5.1 °C 1041.2 hPa Calm   3.2 km/h 75 % 0 mm
02:23 -1.1 °C -5.1 °C 1041.2 hPa Calm   3.2 km/h 74 % 0 mm
02:28 -0.9 °C -5.2 °C 1041.2 hPa Calm   3.2 km/h 73 % 0 mm
02:33 -0.8 °C -5.2 °C 1041.2 hPa Calm   4.8 km/h 72 % 0 mm
02:38 -0.8 °C -5.2 °C 1041.2 hPa Calm   4.8 km/h 72 % 0 mm
02:43 -0.8 °C -5.2 °C 1041.2 hPa Calm   4.8 km/h 72 % 0 mm
02:48 -0.8 °C -5.4 °C 1041.2 hPa WNW 3.2 km/h 4.8 km/h 71 % 0 mm
02:53 -0.7 °C -5.5 °C 1041.2 hPa Calm   3.2 km/h 70 % 0 mm
02:58 -0.7 °C -5.6 °C 1041.2 hPa Calm   4.8 km/h 69 % 0 mm
03:03 -0.6 °C -5.5 °C 1041.2 hPa Calm   4.8 km/h 69 % 0 mm
03:08 -0.5 °C -5.7 °C 1041.2 hPa Calm   4.8 km/h 68 % 0 mm
03:13 -0.5 °C -5.4 °C 1041.2 hPa Calm   4.8 km/h 69 % 0 mm
03:18 -0.4 °C -5.6 °C 1041.2 hPa Calm   6.4 km/h 68 % 0 mm
03:23 -0.3 °C -5.6 °C 1041.2 hPa Calm   6.4 km/h 67 % 0 mm
03:28 -0.2 °C -5.5 °C 1041.2 hPa Calm   6.4 km/h 67 % 0 mm
03:33 -0.1 °C -5.7 °C 1041.2 hPa Calm   6.4 km/h 66 % 0 mm
03:38 -0.1 °C -5.9 °C 1041.2 hPa Calm   6.4 km/h 65 % 0 mm
03:43 -0.1 °C -5.9 °C 1041.5 hPa Calm   6.4 km/h 65 % 0 mm
03:48 -0.1 °C -5.6 °C 1041.5 hPa Calm   6.4 km/h 66 % 0 mm
03:53 -0.2 °C -5.7 °C 1041.9 hPa Calm   4.8 km/h 66 % 0 mm
03:59 -0.2 °C -5.8 °C 1041.9 hPa Calm   4.8 km/h 66 % 0 mm
04:03 -0.3 °C -5.9 °C 1041.9 hPa Calm   4.8 km/h 66 % 0 mm
04:09 -0.5 °C -5.9 °C 1041.9 hPa Calm     67 % 0 mm
04:14 -0.7 °C -6.1 °C 1041.9 hPa Calm     67 % 0 mm
04:19 -0.8 °C -6 °C 1041.9 hPa Calm     68 % 0 mm
04:24 -1.1 °C -6 °C 1041.9 hPa Calm   1.6 km/h 69 % 0 mm
04:29 -1.2 °C -6.1 °C 1042.2 hPa Calm   3.2 km/h 69 % 0 mm
04:34 -1.2 °C -6.1 °C 1041.9 hPa Calm   4.8 km/h 69 % 0 mm
04:39 -1.1 °C -6.1 °C 1041.9 hPa Calm   4.8 km/h 69 % 0 mm
04:44 -1.1 °C -6 °C 1042.2 hPa Calm   4.8 km/h 69 % 0 mm
04:49 -1.1 °C -6 °C 1042.2 hPa Calm   4.8 km/h 69 % 0 mm
04:54 -1.1 °C -6.3 °C 1042.2 hPa Calm   4.8 km/h 68 % 0 mm
04:59 -1.1 °C -6.3 °C 1042.2 hPa Calm   3.2 km/h 68 % 0 mm
05:04 -1.2 °C -6.3 °C 1042.5 hPa Calm   3.2 km/h 68 % 0 mm
05:09 -1.3 °C -6.2 °C 1042.5 hPa Calm   3.2 km/h 69 % 0 mm
05:14 -1.4 °C -6.3 °C 1042.9 hPa Calm   1.6 km/h 69 % 0 mm
05:19 -1.5 °C -6.4 °C 1042.9 hPa Calm   1.6 km/h 69 % 0 mm
05:24 -1.7 °C -6.4 °C 1042.5 hPa Calm   1.6 km/h 70 % 0 mm
05:29 -1.8 °C -6.6 °C 1042.9 hPa Calm   1.6 km/h 70 % 0 mm
05:34 -1.9 °C -6.4 °C 1042.9 hPa Calm   3.2 km/h 71 % 0 mm
05:39 -2 °C -6.6 °C 1042.9 hPa Calm   3.2 km/h 71 % 0 mm
05:44 -2.1 °C -6.4 °C 1042.9 hPa Calm   3.2 km/h 72 % 0 mm
05:49 -2.1 °C -6.4 °C 1042.9 hPa Calm   3.2 km/h 72 % 0 mm
05:54 -2.1 °C -6.5 °C 1043.2 hPa Calm   1.6 km/h 72 % 0 mm
05:59 -2.2 °C -6.6 °C 1043.2 hPa Calm   1.6 km/h 72 % 0 mm
06:04 -2.2 °C -6.6 °C 1043.2 hPa Calm   3.2 km/h 72 % 0 mm
06:09 -2.2 °C -6.6 °C 1043.2 hPa Calm   3.2 km/h 72 % 0 mm
06:14 -2.2 °C -6.3 °C 1043.2 hPa Calm   4.8 km/h 73 % 0 mm
06:19 -2.1 °C -6.3 °C 1043.2 hPa Calm   4.8 km/h 73 % 0 mm
06:24 -2.1 °C -6.2 °C 1043.2 hPa Calm   4.8 km/h 73 % 0 mm
06:29 -2.1 °C -6.2 °C 1043.6 hPa Calm   1.6 km/h 73 % 0 mm
06:34 -2.2 °C -6.3 °C 1043.6 hPa Calm   1.6 km/h 73 % 0 mm
06:39 -2.2 °C -6.4 °C 1043.6 hPa Calm   1.6 km/h 73 % 0 mm
06:44 -2.2 °C -6.4 °C 1043.6 hPa Calm   1.6 km/h 73 % 0 mm
06:49 -2.3 °C -6.4 °C 1043.6 hPa Calm   1.6 km/h 73 % 0 mm
06:54 -2.3 °C -6.4 °C 1043.6 hPa Calm   1.6 km/h 73 % 0 mm
06:59 -2.3 °C -6.4 °C 1043.9 hPa NW 1.6 km/h 3.2 km/h 73 % 0 mm
07:04 -2.2 °C -6.4 °C 1043.9 hPa Calm   3.2 km/h 73 % 0 mm
07:09 -2.2 °C -6.3 °C 1043.9 hPa Calm   3.2 km/h 73 % 0 mm
07:14 -2.2 °C -6.4 °C 1043.9 hPa Calm   3.2 km/h 73 % 0 mm
07:19 -2.2 °C -6.4 °C 1043.9 hPa Calm   3.2 km/h 73 % 0 mm
07:24 -2.2 °C -6.2 °C 1044.2 hPa Calm   3.2 km/h 74 % 0 mm
07:29 -2.2 °C -6.2 °C 1044.2 hPa Calm   4.8 km/h 74 % 0 mm
07:34 -2.2 °C -6.2 °C 1044.6 hPa Calm   4.8 km/h 74 % 0 mm
07:39 -2.2 °C -6.2 °C 1044.6 hPa Calm   4.8 km/h 74 % 0 mm
07:44 -2.1 °C -6.1 °C 1044.6 hPa WSW 3.2 km/h 6.4 km/h 74 % 0 mm
07:49 -1.9 °C -5.9 °C 1044.6 hPa West 1.6 km/h 6.4 km/h 74 % 0 mm
07:54 -1.8 °C -6.2 °C 1044.2 hPa WNW 1.6 km/h 11.3 km/h 72 % 0 mm
07:59 -1.7 °C -6.4 °C 1044.6 hPa Calm   11.3 km/h 70 % 0 mm
08:04 -1.6 °C -6.5 °C 1044.6 hPa Calm   11.3 km/h 69 % 0 mm
08:09 -1.5 °C -6.4 °C 1044.6 hPa Calm   11.3 km/h 69 % 0 mm
08:14 -1.4 °C -6.3 °C 1044.6 hPa Calm   11.3 km/h 69 % 0 mm
08:19 -1.3 °C -6.4 °C 1044.6 hPa ENE 1.6 km/h 6.4 km/h 68 % 0 mm
08:24 -1.2 °C -6.3 °C 1044.6 hPa Calm   6.4 km/h 68 % 0 mm
08:29 -1.2 °C -6.5 °C 1044.6 hPa NNE 3.2 km/h 14.5 km/h 67 % 0 mm
08:34 -1.1 °C -6.4 °C 1044.6 hPa Calm   14.5 km/h 67 % 0 mm
08:39 -1 °C -6.3 °C 1044.6 hPa Calm   14.5 km/h 67 % 0 mm
08:44 -0.9 °C -6.3 °C 1044.6 hPa NE 1.6 km/h 14.5 km/h 67 % 0 mm
08:49 -0.9 °C -6.2 °C 1044.6 hPa Calm   9.7 km/h 67 % 0 mm
08:54 -0.8 °C -6.2 °C 1044.6 hPa Calm   9.7 km/h 67 % 0 mm
08:59 -0.8 °C -6.1 °C 1044.6 hPa Calm   8 km/h 67 % 0 mm
09:04 -0.7 °C -5.8 °C 1044.6 hPa Calm   8 km/h 68 % 0 mm
09:09 -0.6 °C -4.9 °C 1044.6 hPa East 1.6 km/h 6.4 km/h 72 % 0 mm
09:14 -0.5 °C -5.8 °C 1044.6 hPa Calm   9.7 km/h 67 % 0 mm
09:19 -0.4 °C -5.9 °C 1044.6 hPa Calm   9.7 km/h 66 % 0 mm
09:24 -0.3 °C -5.9 °C 1044.6 hPa Calm   12.9 km/h 66 % 0 mm
09:29 -0.3 °C -5.8 °C 1044.6 hPa Calm   12.9 km/h 66 % 0 mm
09:34 -0.2 °C -5.8 °C 1044.6 hPa Calm   12.9 km/h 66 % 0 mm
09:39 -0.1 °C -5.7 °C 1044.6 hPa NW 1.6 km/h 12.9 km/h 66 % 0 mm
09:44 0 °C -5.8 °C 1044.6 hPa East 8 km/h 11.3 km/h 65 % 0 mm
09:49 0.1 °C -5.7 °C 1044.6 hPa Calm   11.3 km/h 65 % 0 mm
09:54 0.2 °C -5.8 °C 1044.9 hPa East 1.6 km/h 9.7 km/h 64 % 0 mm
09:59 0.3 °C -5.7 °C 1044.9 hPa Calm   11.3 km/h 64 % 0 mm
10:04 0.5 °C -5.5 °C 1044.9 hPa East 4.8 km/h 11.3 km/h 64 % 0 mm
10:09 0.6 °C -5.6 °C 1044.9 hPa East 11.3 km/h 12.9 km/h 63 % 0 mm
10:14 0.7 °C -5.6 °C 1044.9 hPa Calm   14.5 km/h 63 % 0 mm
10:19 0.7 °C -5.9 °C 1044.9 hPa East 3.2 km/h 14.5 km/h 61 % 0 mm
10:24 0.8 °C -5.6 °C 1044.9 hPa East 3.2 km/h 14.5 km/h 62 % 0 mm
10:29 0.8 °C -5.6 °C 1044.9 hPa Calm   14.5 km/h 62 % 0 mm
10:34 0.9 °C -5.3 °C 1044.6 hPa ESE 8 km/h 14.5 km/h 63 % 0 mm
10:39 1 °C -5.2 °C 1044.6 hPa NE 1.6 km/h 14.5 km/h 63 % 0 mm
10:44 0.9 °C -5.5 °C 1044.6 hPa East 8 km/h 14.5 km/h 62 % 0 mm
10:49 1 °C -5.2 °C 1044.2 hPa Calm   14.5 km/h 63 % 0 mm
10:54 1.1 °C -5.4 °C 1044.2 hPa ESE 11.3 km/h 11.3 km/h 62 % 0 mm
10:59 1.1 °C -4.9 °C 1044.2 hPa ESE 14.5 km/h 14.5 km/h 64 % 0 mm
11:04 1.2 °C -5.3 °C 1043.9 hPa Calm   16.1 km/h 62 % 0 mm
11:09 1.3 °C -4.9 °C 1043.9 hPa East 3.2 km/h 16.1 km/h 63 % 0 mm
11:14 1.3 °C -5.2 °C 1043.9 hPa Calm   16.1 km/h 62 % 0 mm
11:19 1.3 °C -5.1 °C 1043.9 hPa East 3.2 km/h 16.1 km/h 62 % 0 mm
11:24 1.5 °C -4.9 °C 1043.9 hPa East 1.6 km/h 11.3 km/h 62 % 0 mm
11:29 1.6 °C -4.9 °C 1043.9 hPa Calm   9.7 km/h 62 % 0 mm
11:34 1.6 °C -5.1 °C 1043.9 hPa Calm   9.7 km/h 61 % 0 mm
11:39 1.6 °C -5.3 °C 1043.9 hPa East 8 km/h 11.3 km/h 60 % 0 mm
11:44 1.6 °C -5.1 °C 1043.9 hPa East 1.6 km/h 16.1 km/h 61 % 0 mm
11:49 1.6 °C -5.5 °C 1043.6 hPa NE 1.6 km/h 16.1 km/h 59 % 0 mm
11:54 1.7 °C -5.2 °C 1043.6 hPa ENE 3.2 km/h 16.1 km/h 60 % 0 mm
11:59 1.8 °C -5.4 °C 1043.6 hPa ENE 1.6 km/h 11.3 km/h 59 % 0 mm
12:04 1.8 °C -5.1 °C 1043.6 hPa NNE 3.2 km/h 11.3 km/h 60 % 0 mm
12:09 1.9 °C -5.1 °C 1043.6 hPa Calm   11.3 km/h 60 % 0 mm
12:14 1.9 °C -5.2 °C 1043.6 hPa Calm   11.3 km/h 59 % 0 mm
12:19 2.1 °C -4.9 °C 1043.2 hPa North 1.6 km/h 6.4 km/h 60 % 0 mm
12:24 2.1 °C -4.9 °C 1043.2 hPa Calm   6.4 km/h 60 % 0 mm
12:29 2.2 °C -4.8 °C 1043.2 hPa Calm   6.4 km/h 60 % 0 mm
12:34 2.3 °C -4.7 °C 1043.2 hPa Calm   4.8 km/h 60 % 0 mm
12:39 2.4 °C -4.5 °C 1043.2 hPa ESE 1.6 km/h 12.9 km/h 60 % 0 mm
12:44 2.6 °C -4.8 °C 1043.2 hPa East 1.6 km/h 12.9 km/h 58 % 0 mm
12:49 2.6 °C -4.6 °C 1043.2 hPa Calm   12.9 km/h 59 % 0 mm
12:54 2.8 °C -4.4 °C 1042.9 hPa Calm   12.9 km/h 59 % 0 mm
12:59 3.1 °C -4.4 °C 1042.9 hPa Calm   12.9 km/h 58 % 0 mm
13:04 3.2 °C -4.4 °C 1042.9 hPa East 8 km/h 16.1 km/h 57 % 0 mm
13:09 3.2 °C -4.5 °C 1042.5 hPa Calm   16.1 km/h 57 % 0 mm
13:14 3.2 °C -4.3 °C 1042.5 hPa ESE 1.6 km/h 16.1 km/h 58 % 0 mm
13:19 3.1 °C -4.6 °C 1042.5 hPa East 8 km/h 16.1 km/h 57 % 0 mm
13:24 3.1 °C -4.4 °C 1042.2 hPa Calm   12.9 km/h 58 % 0 mm
13:29 3.3 °C -4.2 °C 1042.2 hPa ESE 4.8 km/h 16.1 km/h 58 % 0 mm
13:34 3.3 °C -4.1 °C 1041.9 hPa ESE 1.6 km/h 16.1 km/h 58 % 0 mm
13:39 3.4 °C -4.1 °C 1041.9 hPa East 3.2 km/h 16.1 km/h 58 % 0 mm
13:44 3.4 °C -4.1 °C 1041.9 hPa East 3.2 km/h 16.1 km/h 58 % 0 mm
13:49 3.4 °C -4.3 °C 1041.9 hPa Calm   12.9 km/h 57 % 0 mm
13:54 3.5 °C -4.2 °C 1041.9 hPa ESE 1.6 km/h 12.9 km/h 57 % 0 mm
13:59 3.5 °C -3.9 °C 1041.9 hPa East 3.2 km/h 12.9 km/h 58 % 0 mm
14:04 3.6 °C -3.9 °C 1041.9 hPa ESE 4.8 km/h 11.3 km/h 58 % 0 mm
14:09 3.6 °C -3.9 °C 1041.9 hPa East 9.7 km/h 11.3 km/h 58 % 0 mm
14:14 3.4 °C -4.3 °C 1042.2 hPa Calm   12.9 km/h 57 % 0 mm
14:19 3.4 °C -4.3 °C 1041.9 hPa Calm   12.9 km/h 57 % 0 mm
14:24 3.3 °C -3.9 °C 1041.9 hPa Calm   12.9 km/h 59 % 0 mm
14:29 3.3 °C -4.1 °C 1041.9 hPa ESE 1.6 km/h 9.7 km/h 58 % 0 mm
14:34 3.4 °C -4.1 °C 1041.9 hPa Calm   9.7 km/h 58 % 0 mm
14:39 3.4 °C -4.1 °C 1041.5 hPa Calm   9.7 km/h 58 % 0 mm
14:44 3.3 °C -4.2 °C 1041.5 hPa Calm   9.7 km/h 58 % 0 mm
14:49 3.2 °C -4 °C 1041.5 hPa Calm   9.7 km/h 59 % 0 mm
14:54 3.2 °C -4 °C 1041.5 hPa East 3.2 km/h 8 km/h 59 % 0 mm
14:59 3.3 °C -3.7 °C 1041.2 hPa East 1.6 km/h 9.7 km/h 60 % 0 mm
15:04 3.3 °C -3.7 °C 1041.2 hPa East 1.6 km/h 9.7 km/h 60 % 0 mm
15:09 3.3 °C -3.7 °C 1041.2 hPa East 1.6 km/h 14.5 km/h 60 % 0 mm
15:14 3.3 °C -3.7 °C 1041.2 hPa Calm   14.5 km/h 60 % 0 mm
15:19 3.4 °C -3.6 °C 1041.2 hPa Calm   14.5 km/h 60 % 0 mm
15:24 3.4 °C -3.8 °C 1041.2 hPa Calm   11.3 km/h 59 % 0 mm
15:29 3.3 °C -3.9 °C 1041.5 hPa Calm   6.4 km/h 59 % 0 mm
15:34 3.3 °C -3.9 °C 1041.5 hPa Calm   6.4 km/h 59 % 0 mm
15:39 3.3 °C -3.7 °C 1041.5 hPa Calm   6.4 km/h 60 % 0 mm
15:44 3.2 °C -3.8 °C 1041.5 hPa Calm   4.8 km/h 60 % 0 mm
15:49 3.3 °C -3.7 °C 1041.2 hPa Calm   4.8 km/h 60 % 0 mm
15:54 3.3 °C -3.7 °C 1041.2 hPa Calm   4.8 km/h 60 % 0 mm
15:59 3.3 °C -3.7 °C 1041.2 hPa SE 3.2 km/h 4.8 km/h 60 % 0 mm
16:04 3.3 °C -3.5 °C 1041.2 hPa Calm   4.8 km/h 61 % 0 mm
16:09 3.3 °C -3.5 °C 1040.9 hPa Calm   4.8 km/h 61 % 0 mm
16:14 3.3 °C -3.4 °C 1041.2 hPa Calm   4.8 km/h 61 % 0 mm
16:19 3.3 °C -3.4 °C 1041.2 hPa Calm   3.2 km/h 61 % 0 mm
16:24 3.4 °C -3.4 °C 1041.2 hPa Calm   3.2 km/h 61 % 0 mm
16:29 3.4 °C -3.3 °C 1041.2 hPa Calm   3.2 km/h 61 % 0 mm
16:34 3.4 °C -3.6 °C 1041.2 hPa South 3.2 km/h 4.8 km/h 60 % 0 mm
16:39 3.4 °C -3.4 °C 1041.2 hPa Calm   6.4 km/h 61 % 0 mm
16:44 3.4 °C -3.4 °C 1041.2 hPa ESE 4.8 km/h 6.4 km/h 61 % 0 mm
16:49 3.3 °C -3.4 °C 1040.9 hPa Calm   6.4 km/h 61 % 0 mm
16:54 3.3 °C -3.5 °C 1040.9 hPa Calm   4.8 km/h 61 % 0 mm
16:59 3.3 °C -3.5 °C 1040.9 hPa Calm   6.4 km/h 61 % 0 mm
17:04 3.3 °C -3.3 °C 1040.9 hPa Calm   6.4 km/h 62 % 0 mm
17:09 3.3 °C -3.3 °C 1040.9 hPa Calm   6.4 km/h 62 % 0 mm
17:14 3.2 °C -3.3 °C 1040.9 hPa Calm   6.4 km/h 62 % 0 mm
17:19 3.2 °C -2.9 °C 1040.9 hPa Calm   3.2 km/h 64 % 0 mm
17:24 3.2 °C -2.7 °C 1040.5 hPa Calm   3.2 km/h 65 % 0 mm
17:29 3.1 °C -2.6 °C 1040.5 hPa Calm   3.2 km/h 66 % 0 mm
17:34 3.1 °C -2.7 °C 1040.5 hPa Calm   3.2 km/h 66 % 0 mm
17:39 3.1 °C -2.7 °C 1040.5 hPa Calm   4.8 km/h 66 % 0 mm
17:44 3 °C -2.7 °C 1040.5 hPa Calm   4.8 km/h 66 % 0 mm
17:49 3 °C -2.7 °C 1040.5 hPa Calm   4.8 km/h 66 % 0 mm
17:54 2.9 °C -2.7 °C 1040.5 hPa Calm   4.8 km/h 66 % 0 mm
17:59 2.9 °C -2.7 °C 1040.5 hPa Calm   3.2 km/h 66 % 0 mm
18:04 2.9 °C -2.7 °C 1040.5 hPa Calm   3.2 km/h 66 % 0 mm
18:09 2.9 °C -2.6 °C 1040.5 hPa Calm   3.2 km/h 67 % 0 mm
18:14 2.9 °C -2.6 °C 1040.2 hPa Calm   3.2 km/h 67 % 0 mm
18:19 2.9 °C -2.6 °C 1040.2 hPa ESE 3.2 km/h 3.2 km/h 67 % 0 mm
18:24 2.9 °C -2.6 °C 1040.5 hPa Calm   3.2 km/h 67 % 0 mm
18:29 2.9 °C -2.3 °C 1040.5 hPa Calm   3.2 km/h 68 % 0 mm
18:34 2.9 °C -2.3 °C 1040.5 hPa Calm   3.2 km/h 68 % 0 mm
18:39 2.9 °C -2.2 °C 1040.2 hPa Calm   3.2 km/h 69 % 0 mm
18:44 2.9 °C -2.2 °C 1040.2 hPa Calm   4.8 km/h 69 % 0 mm
18:49 2.9 °C -2 °C 1040.2 hPa Calm   4.8 km/h 70 % 0 mm
18:54 2.9 °C -1.9 °C 1040.2 hPa Calm   4.8 km/h 70 % 0 mm
18:59 2.9 °C -1.9 °C 1040.2 hPa Calm   3.2 km/h 70 % 0 mm
19:04 2.9 °C -1.8 °C 1039.8 hPa Calm   3.2 km/h 71 % 0 mm
19:09 2.9 °C -1.8 °C 1039.8 hPa Calm   1.6 km/h 71 % 0 mm
19:14 2.9 °C -1.8 °C 1039.8 hPa Calm   1.6 km/h 71 % 0 mm
19:19 2.8 °C -1.7 °C 1039.8 hPa Calm   3.2 km/h 72 % 0 mm
19:24 2.8 °C -1.7 °C 1039.5 hPa SE 1.6 km/h 3.2 km/h 72 % 0 mm
19:29 2.8 °C -1.5 °C 1039.5 hPa ESE 1.6 km/h 3.2 km/h 73 % 0 mm
19:34 2.8 °C -1.6 °C 1039.5 hPa Calm   4.8 km/h 73 % 0 mm
19:39 2.7 °C -1.4 °C 1039.2 hPa Calm   4.8 km/h 74 % 0 mm
19:44 2.7 °C -1.4 °C 1039.2 hPa ESE 3.2 km/h 6.4 km/h 74 % 0 mm
19:49 2.7 °C -1.3 °C 1039.2 hPa Calm   6.4 km/h 75 % 0 mm
19:54 2.7 °C -1.3 °C 1039.2 hPa Calm   6.4 km/h 75 % 0 mm
19:59 2.6 °C -1.3 °C 1039.2 hPa East 3.2 km/h 4.8 km/h 75 % 0 mm
20:04 2.6 °C -1.3 °C 1039.2 hPa ESE 1.6 km/h 4.8 km/h 75 % 0 mm
20:09 2.6 °C -1.2 °C 1039.2 hPa Calm   4.8 km/h 76 % 0 mm
20:14 2.6 °C -1.2 °C 1039.2 hPa Calm   4.8 km/h 76 % 0 mm
20:19 2.6 °C -1.2 °C 1039.2 hPa Calm   3.2 km/h 76 % 0 mm
20:24 2.6 °C -1.1 °C 1039.2 hPa Calm   3.2 km/h 77 % 0 mm
20:29 2.5 °C -1.1 °C 1038.8 hPa Calm   4.8 km/h 77 % 0 mm
20:34 2.5 °C -1.1 °C 1038.8 hPa Calm   4.8 km/h 77 % 0 mm
20:39 2.5 °C -1.1 °C 1038.8 hPa Calm   4.8 km/h 77 % 0 mm
20:44 2.4 °C -1 °C 1038.8 hPa Calm   4.8 km/h 78 % 0 mm
20:49 2.4 °C -1 °C 1038.8 hPa Calm   4.8 km/h 78 % 0 mm
20:54 2.4 °C -1 °C 1038.8 hPa Calm   3.2 km/h 78 % 0 mm
20:59 2.4 °C -1 °C 1038.8 hPa Calm   1.6 km/h 78 % 0 mm
21:04 2.4 °C -0.8 °C 1038.8 hPa Calm   1.6 km/h 79 % 0 mm
21:09 2.4 °C -0.8 °C 1038.5 hPa Calm   1.6 km/h 79 % 0 mm
21:14 2.4 °C -0.8 °C 1038.5 hPa Calm   1.6 km/h 79 % 0 mm
21:19 2.4 °C -0.8 °C 1038.5 hPa Calm   1.6 km/h 79 % 0 mm
21:24 2.4 °C -0.8 °C 1038.5 hPa Calm   1.6 km/h 79 % 0 mm
21:29 2.4 °C -0.7 °C 1038.5 hPa Calm   1.6 km/h 80 % 0 mm
21:34 2.4 °C -0.7 °C 1038.5 hPa Calm   1.6 km/h 80 % 0 mm
21:39 2.4 °C -0.7 °C 1038.5 hPa SE 1.6 km/h 1.6 km/h 80 % 0 mm
21:44 2.4 °C -0.7 °C 1038.1 hPa Calm   4.8 km/h 80 % 0 mm
21:49 2.4 °C -0.7 °C 1038.1 hPa Calm   4.8 km/h 80 % 0 mm
21:54 2.3 °C -0.8 °C 1037.8 hPa Calm   4.8 km/h 80 % 0 mm
21:59 2.4 °C -0.7 °C 1037.8 hPa Calm   1.6 km/h 80 % 0 mm
22:04 2.3 °C -0.8 °C 1037.8 hPa Calm   1.6 km/h 80 % 0 mm
22:09 2.3 °C -0.8 °C 1037.8 hPa Calm   4.8 km/h 80 % 0 mm
22:14 2.3 °C -0.8 °C 1037.8 hPa Calm   4.8 km/h 80 % 0 mm
22:19 2.3 °C -0.8 °C 1037.8 hPa Calm   4.8 km/h 80 % 0 mm
22:24 2.3 °C -0.8 °C 1037.8 hPa Calm   4.8 km/h 80 % 0 mm
22:29 2.3 °C -0.8 °C 1037.8 hPa Calm   3.2 km/h 80 % 0 mm
22:34 2.3 °C -0.9 °C 1037.5 hPa Calm   1.6 km/h 79 % 0 mm
22:39 2.3 °C -1 °C 1037.5 hPa Calm   1.6 km/h 79 % 0 mm
22:44 2.3 °C -1 °C 1037.1 hPa Calm   1.6 km/h 79 % 0 mm
22:49 2.3 °C -1 °C 1036.8 hPa Calm   3.2 km/h 79 % 0 mm
22:54 2.3 °C -1 °C 1036.8 hPa Calm   3.2 km/h 79 % 0 mm
22:59 2.3 °C -1 °C 1037.1 hPa Calm   3.2 km/h 79 % 0 mm
23:04 2.3 °C -1 °C 1037.1 hPa Calm   3.2 km/h 79 % 0 mm
23:09 2.2 °C -1.1 °C 1037.1 hPa Calm   1.6 km/h 79 % 0 mm
23:14 2.3 °C -1 °C 1037.1 hPa Calm   3.2 km/h 79 % 0 mm
23:19 2.3 °C -1 °C 1037.1 hPa Calm   3.2 km/h 79 % 0 mm
23:24 2.3 °C -1 °C 1037.1 hPa Calm   3.2 km/h 79 % 0 mm
23:29 2.3 °C -1 °C 1036.8 hPa Calm   3.2 km/h 79 % 0 mm
23:34 2.3 °C -1 °C 1036.8 hPa Calm   3.2 km/h 79 % 0 mm
23:39 2.2 °C -1.1 °C 1036.8 hPa Calm   3.2 km/h 79 % 0 mm
23:44 2.3 °C -1.2 °C 1036.8 hPa Calm   3.2 km/h 78 % 0 mm
23:49 2.3 °C -1 °C 1036.8 hPa Calm   3.2 km/h 79 % 0 mm
23:54 2.2 °C -1.1 °C 1036.5 hPa SE 1.6 km/h 3.2 km/h 79 % 0 mm
23:59 2.2 °C -1.1 °C 1036.1 hPa Calm   3.2 km/h 79 % 0 mm
MarylandWx.com
Compliments of Weather Underground - 6.5 mb